#timestamp,LO_Frequency,Hit,StdDev 
1644948015.1,286046998.4,N
1644948035.9,286047000.4,N
1644948055.7,286047000.1,N
1644948075.5,286047000.3,N
1644948095.4,286047001.2,N
1644948115.2,286047000.2,N
1644948135.0,286047001.0,N
1644948135.9,286047001.0,N
1644948155.8,286047000.2,N
1644948175.6,286046999.9,N
1644948195.5,286046999.9,N
1644948215.3,286047001.6,N
1644948235.1,286047002.2,N
1644948255.9,286047001.6,N
1644948275.7,286047000.5,N
1644948295.6,286047000.4,N
1644948315.4,286046998.5,N
1644948335.2,286046999.1,N
1644948355.1,286046999.5,N
1644948356.0,286046999.5,N
1644948375.8,286046998.1,N
1644948395.6,286047000.9,N
1644948415.5,286046998.6,N
1644948435.3,286046998.4,N
1644948455.2,286046999.6,N
1644948475.9,286046999.1,N
1644948495.7,286046998.7,N
1644948515.6,286047001.1,N
1644948535.4,286046998.5,N
1644948555.3,286046998.1,N
1644948575.1,286047001.1,N
1644948576.0,286047001.1,N
1644948595.8,286046998.7,N
1644948615.7,286047002.7,N
1644948635.5,286047000.2,N
1644948655.3,286047001.1,N
1644948675.2,286046998.9,N
1644948695.0,286047000.0,N
1644948695.9,286047000.0,N
1644948715.8,286047001.2,N
1644948735.6,286046998.3,N
1644948755.4,286046998.9,N
1644948775.3,286046998.3,N
1644948795.1,286046998.4,N
1644948815.9,286046999.3,N
1644948835.7,286046998.6,N
1644948855.5,286046999.0,N
1644948875.4,286046998.6,N
1644948895.2,286046996.6,N
1644948915.1,286046998.6,N
1644948916.0,286046998.6,N
1644948935.8,286047000.7,N
1644948955.6,286046999.3,N
1644948975.5,286046996.7,N
1644948995.3,286046997.4,N
1644949015.1,286046997.2,N
1644949035.9,286046996.8,N
1644949055.7,286046995.9,N
1644949075.6,286046996.2,N
1644949095.4,286046995.9,N
1644949115.2,286046995.2,N
1644949135.1,286046994.9,N
1644949136.0,286046994.9,N
1644949155.8,286046997.6,N
1644949175.7,286046997.0,N
1644949195.5,286046998.8,N
1644949215.3,286046998.6,N
1644949235.2,286046999.1,N
1644949255.0,286046999.3,N
1644949255.9,286046999.3,N
1644949275.8,286046999.5,N
1644949295.6,286046997.3,N
1644949315.4,286046994.9,Y
1644949335.3,286046999.4,P
1644949355.1,286046998.9,N
1644949375.9,286046998.7,N
1644949395.7,286046999.1,N
1644949415.5,286046999.2,N
1644949435.4,286046999.2,N
1644949455.2,286046998.9,N
1644949475.0,286046999.3,N
1644949476.0,286046999.3,N
1644949495.8,286046996.9,Y
1644949515.6,286046999.0,P
1644949535.5,286046999.4,P
1644949555.3,286046997.6,P
1644949575.1,286046997.2,Y
1644949595.9,286046999.0,P
1644949615.7,286046999.2,P
1644949635.6,286046998.3,P
1644949655.4,286046999.0,Y
1644949675.2,286046998.1,P
1644949695.1,286047001.0,N
1644949696.0,286047001.0,N
1644949715.8,286047000.0,N
1644949735.7,286047000.0,N
1644949755.5,286047000.8,N
1644949775.3,286047000.2,N
1644949795.2,286047001.1,N
1644949815.9,286046999.0,N
1644949835.7,286046999.2,N
1644949855.6,286047001.2,N
1644949875.4,286047000.6,N
1644949895.3,286047001.2,N
1644949915.1,286047000.8,N
1644949916.0,286047000.8,N
1644949935.8,286047000.0,N
1644949955.7,286047000.5,N
1644949975.5,286046999.9,N
1644949995.3,286047000.5,N
1644950015.2,286047002.4,N
1644950035.0,286047000.3,N
1644950035.9,286047000.3,N
1644950055.8,286047000.6,N
1644950075.6,286047001.0,N
1644950095.4,286047000.8,N
1644950115.3,286046996.5,Y
1644950135.1,286046998.9,P
1644950155.8,286046999.4,N
1644950175.7,286046996.9,P
1644950195.5,286046997.7,N
1644950215.4,286046997.6,N
1644950235.2,286046999.5,N
1644950255.0,286046996.5,Y
1644950256.0,286046996.5,P
1644950275.8,286046998.4,N
1644950295.6,286046998.4,N
1644950315.5,286046999.0,N
1644950335.3,286046998.6,N
1644950355.1,286046998.3,N
1644950375.9,286046998.9,N
1644950395.7,286046998.4,N
1644950415.5,286046998.7,N
1644950435.4,286046998.6,N
1644950455.2,286046999.3,N
1644950475.1,286046998.1,N
1644950476.0,286046998.1,Y
1644950495.8,286047000.1,P
1644950515.6,286047002.6,P
1644950535.5,286047002.5,N
1644950555.3,286047002.5,N
1644950575.2,286047002.2,N
1644950595.9,286046999.7,N
1644950615.7,286047000.2,N
1644950635.6,286047002.8,N
1644950655.4,286046999.9,N
1644950675.2,286047000.4,N
1644950695.1,286046999.9,N
1644950696.0,286046999.9,N
1644950715.8,286047000.3,N
1644950735.7,286047000.2,N
1644950755.5,286047000.2,N
1644950775.3,286047002.3,N
1644950795.2,286047002.7,N
1644950815.9,286046999.8,N
1644950835.7,286047000.8,N
1644950855.6,286046998.3,N
1644950875.4,286046998.5,N
1644950895.2,286047001.0,N
1644950915.1,286047000.8,N
1644950916.0,286047000.8,N
1644950935.8,286046998.1,N
1644950955.7,286047001.1,N
1644950975.5,286047000.9,N
1644950995.3,286047000.5,N
1644951015.2,286047000.7,N
1644951035.0,286047002.7,N
1644951035.9,286047002.7,N
1644951055.8,286047000.9,N
1644951075.6,286047000.9,N
1644951095.4,286047000.0,N
1644951115.3,286047000.1,N
1644951135.1,286047000.0,N
1644951155.8,286047000.8,N
1644951175.7,286047000.7,N
1644951195.5,286047000.7,N
1644951215.3,286047000.9,N
1644951235.2,286047000.5,N
1644951255.0,286047000.1,N
1644951255.9,286047000.1,N
1644951275.8,286047000.9,N
1644951295.6,286046999.7,N
1644951315.4,286047000.2,N
1644951335.3,286046999.8,N
1644951355.1,286046999.7,N
1644951375.9,286047000.5,N
1644951395.7,286046999.9,N
1644951415.5,286047000.8,N
1644951435.4,286047001.2,N
1644951455.2,286047000.5,N
1644951475.0,286046998.7,N
1644951475.9,286046998.7,N
1644951495.8,286046998.1,N
1644951515.6,286046998.7,N
1644951535.5,286046998.7,N
1644951555.3,286046998.6,N
1644951575.1,286046998.6,N
1644951595.9,286046998.7,N
